User: anonymous   Login
Location: Orange Harbor Mobile Home Park
(26.6923°N, 81.7937°W)
Time: 23:38:03
(UTC+00:00)
Language:

Cosmos 2285 Rocket - Orbit

View from above orbital plane
View from above orbital plane
View from above satellite
View from above satellite

Ground track
Ground track

The orbit data is extracted from the following two-line orbital elements,

1 23190U 94045B   21127.81302109  .00000031  00000-0  56960-4 0  9998
2 23190  74.0283 268.3675 0019979 283.5502  76.3392 13.74106372342359
Epoch (UTC): 07 May 2021 19:30:45
Eccentricity: 0.0019979
inclination: 74.0283°
perigee height: 970 km
apogee height: 999 km
right ascension of ascending node: 268.3675°
argument of perigee: 283.5502°
revolutions per day: 13.74106372
mean anomaly at epoch: 76.3392°
orbit number at epoch: 34235

The dashed part of the orbit path shows where the satellite is in the earth's shadow,  

DLR